Wind_Speed
21 21 21 21 20 21 20 20 20 19 19 18 17 17 16 16 16 16 15 15 15 15 15 15 16 16 16 16 16 16 16 15 15 15 15 16 17 17 17 17 17 17 17
21 21 21 21 20 20 20 20 20 19 18 18 17 17 17 17 17 17 16 16 16 16 16 16 16 17 17 17 17 17 17 17 16 16 16 16 17 17 17 18 18 19 19
22 21 21 21 21 20 20 20 20 20 19 19 18 18 18 18 18 18 18 18 17 17 17 17 17 17 17 17 17 18 18 18 18 18 18 18 18 18 18 19 19 19 19
21 21 21 20 20 20 20 20 19 18 18 19 19 19 19 19 19 19 19 19 18 17 17 17 17 17 18 18 18 18 19 19 20 20 20 20 20 19 20 20 20 20 20
21 20 21 21 21 20 20 20 20 19 19 19 19 20 20 20 20 20 20 19 19 18 18 18 18 18 19 19 19 20 20 21 21 21 21 21 21 21 22 22 21 21 21
21 21 21 21 21 21 21 21 20 19 19 19 19 20 20 20 20 19 19 20 20 19 19 20 19 19 20 20 21 21 22 22 22 22 22 22 22 22 22 22 22 22 22
22 22 22 21 21 21 21 21 20 19 19 18 19 19 18 19 19 20 20 20 20 21 21 21 21 21 21 21 22 22 22 23 23 23 23 22 22 23 23 24 24 24 23
23 23 22 21 21 21 21 21 20 19 18 18 18 18 18 19 20 20 20 20 21 21 21 22 22 22 22 23 23 23 24 24 24 24 24 23 23 23 24 24 24 24 25
24 23 22 21 21 22 21 21 20 19 18 18 19 19 19 19 20 20 21 21 22 22 23 22 23 23 23 24 24 25 26 26 26 26 25 25 25 25 25 25 25 25 25
23 23 22 22 22 22 22 21 21 20 20 20 20 20 21 20 21 21 21 21 22 22 22 23 23 24 24 24 24 25 26 26 26 26 26 26 26 26 26 26 26 26 26
23 23 23 23 23 22 22 21 21 21 21 21 21 21 21 21 21 20 21 23 23 23 23 24 24 24 25 25 25 25 25 26 26 27 27 27 27 28 27 27 27 27 26
23 24 24 24 23 23 23 23 23 23 23 22 22 22 22 22 22 21 22 22 23 24 25 25 25 25 26 26 26 26 26 26 26 27 27 27 28 28 28 28 28 28 28
24 24 24 23 24 23 23 24 23 23 23 23 23 22 22 22 22 21 22 23 23 24 25 26 26 26 26 26 26 26 27 27 27 27 26 26 27 27 27 28 28 29 29
23 23 23 23 23 23 23 23 23 22 22 21 21 22 22 22 22 22 22 23 24 24 25 26 26 27 27 27 27 27 27 27 27 26 26 26 26 26 27 27 28 29 29
22 22 23 23 23 22 21 21 22 21 21 21 20 21 21 21 22 22 22 22 23 24 24 24 24 25 26 26 27 27 27 27 27 26 26 26 27 27 27 28 29 29 30
21 22 22 23 22 22 21 21 21 21 21 20 20 21 21 21 21 22 22 22 22 22 23 23 23 23 24 24 25 25 26 25 25 25 26 27 27 27 27 28 29 29 29
22 21 21 21 22 21 21 20 20 20 20 21 21 22 22 22 21 21 21 22 22 23 23 23 23 22 22 23 23 24 25 24 24 24 25 25 25 26 27 28 29 29 29
22 22 22 21 21 21 20 20 20 20 20 20 20 21 21 21 21 22 22 22 22 23 23 23 23 22 22 22 23 23 22 23 23 23 24 24 25 26 26 27 27 27 27
22 22 22 22 21 21 20 20 20 21 21 20 20 20 20 20 21 21 21 21 22 22 23 23 23 23 22 22 22 22 22 22 22 23 23 24 24 25 25 25 25 25 25
22 22 23 22 22 21 21 21 21 21 21 21 21 21 21 21 21 22 22 22 22 22 23 23 23 23 23 22 21 21 21 21 22 23 23 23 24 24 24 24 24 24 24
23 22 22 22 22 22 22 22 22 22 22 21 21 22 22 22 22 22 23 23 22 22 22 22 22 22 22 21 20 21 20 20 21 22 23 24 24 25 25 25 25 24 24
23 23 22 23 22 22 22 22 22 22 22 22 22 23 23 23 23 23 23 23 22 22 22 21 21 21 21 20 21 21 21 21 22 23 23 24 25 25 25 25 25 25 25
23 23 23 23 23 23 23 23 23 22 22 23 23 23 23 23 23 23 23 22 22 21 21 21 22 22 21 21 22 22 22 22 23 24 24 24 25 25 25 25 25 25 25
23 24 23 22 22 23 23 23 23 24 23 23 24 24 24 24 24 23 23 23 22 22 22 22 22 22 21 21 22 22 22 23 24 24 24 24 24 25 25 25 25 25 25
24 24 22 22 22 22 23 23 23 23 23 24 23 23 23 23 24 23 23 23 23 23 23 22 22 22 21 21 21 21 22 23 24 25 25 25 24 24 24 25 25 26 26
24 23 23 22 22 22 22 22 22 23 23 23 23 23 22 22 22 23 24 24 24 24 23 23 23 22 22 22 22 22 22 23 24 25 25 25 25 25 25 25 25 26 26
Wind_Direction
295 295 296 296 296 295 294 293 289 285 279 276 273 273 272 272 271 270 270 271 273 273 271 271 268 266 264 264 263 264 265 264 264 264 267 265 265 264 267 267 268 269 271
294 293 293 295 294 294 292 292 289 285 279 275 272 271 269 270 271 269 268 269 271 271 270 269 270 267 265 266 265 264 263 264 265 266 268 269 267 267 269 268 267 268 270
292 294 294 293 293 293 293 292 291 284 278 274 271 270 269 268 269 267 269 270 271 272 272 271 271 269 265 265 264 262 262 264 266 266 266 268 269 271 272 270 270 270 270
292 293 294 294 294 294 292 292 290 284 278 273 270 268 269 269 268 269 270 270 272 272 273 274 272 272 270 269 267 265 264 265 266 266 267 269 269 270 272 271 271 271 270
291 291 292 294 294 295 294 291 287 281 277 275 271 269 269 269 269 268 268 268 270 270 271 273 273 273 273 271 270 269 268 267 268 269 269 271 270 269 271 271 270 270 271
289 289 291 293 295 297 296 294 289 285 278 275 273 270 269 268 268 267 266 267 268 269 270 272 273 274 274 272 271 270 269 270 270 269 268 270 271 270 269 269 269 270 271
286 290 291 293 294 296 296 296 292 289 283 278 276 273 269 268 268 268 267 267 268 268 270 272 272 273 275 274 272 271 270 271 272 271 268 270 271 272 270 269 270 271 272
288 290 290 290 291 292 292 292 290 287 284 281 277 273 268 267 267 268 269 268 269 269 271 272 272 272 274 276 276 275 274 273 273 273 270 270 272 273 272 271 271 270 271
288 290 290 289 288 288 289 290 289 285 282 280 279 276 273 270 269 270 269 269 269 269 270 271 272 274 275 276 276 275 274 273 273 272 270 270 272 273 273 271 271 271 271
286 287 287 286 287 287 287 287 287 283 281 282 282 278 275 273 272 271 269 269 269 269 270 271 272 274 275 276 277 275 273 272 272 273 271 270 270 270 270 271 270 271 271
285 285 286 285 286 287 287 286 286 284 282 281 281 278 275 273 272 271 272 271 270 270 271 272 274 274 276 277 277 276 274 273 273 275 273 271 268 268 269 270 271 271 270
284 284 284 285 285 285 285 285 283 282 281 280 280 279 276 275 273 271 273 275 273 272 272 272 272 273 275 276 276 276 276 277 276 276 274 272 270 269 269 269 269 269 269
284 284 284 285 284 284 284 284 283 282 281 279 277 275 275 276 277 276 275 276 277 277 275 274 274 274 274 274 275 278 279 277 276 276 276 274 271 270 268 268 267 268 269
283 283 284 285 284 284 284 283 284 284 281 279 276 276 276 276 276 277 275 276 278 280 279 277 275 275 276 275 275 277 278 277 276 276 276 274 273 270 268 269 269 270 270
282 283 284 286 287 288 287 285 284 283 280 278 277 278 278 276 275 275 276 277 278 280 280 279 278 278 276 276 276 277 279 279 277 276 276 276 273 270 268 269 270 271 270
283 284 285 287 288 287 287 285 284 284 281 278 277 279 279 279 279 277 277 278 279 280 281 283 282 281 279 278 277 278 281 280 278 276 277 277 274 272 271 271 270 271 271
285 285 286 288 289 288 288 286 287 286 283 280 278 279 279 278 279 280 279 280 281 280 282 283 282 281 281 280 281 280 280 279 278 278 278 276 275 275 274 273 272 271 272
288 286 285 286 287 286 286 286 287 288 288 285 282 280 279 279 279 280 281 281 282 282 282 283 283 283 285 284 282 280 278 279 280 280 280 280 279 278 277 277 275 273 273
289 288 286 285 284 284 284 284 286 288 287 286 286 283 279 280 280 281 282 283 284 285 285 285 284 284 285 285 283 282 281 281 282 283 284 283 282 280 280 278 276 274 274
287 288 287 286 285 284 283 283 284 286 285 284 285 285 281 280 280 281 282 283 285 285 287 286 285 285 285 285 285 287 285 283 283 284 284 285 284 283 281 279 278 276 274
287 288 287 285 286 286 284 283 283 283 281 281 283 283 281 280 279 279 281 284 285 285 287 286 286 287 287 286 287 289 288 287 285 285 285 286 287 285 283 282 280 278 276
284 286 287 287 286 286 285 283 282 282 282 281 280 281 282 282 280 279 279 281 282 282 283 286 287 286 286 286 287 288 289 288 287 287 287 287 287 286 282 280 280 278 276
283 283 284 285 286 285 284 281 281 281 280 280 281 281 282 281 281 280 280 278 281 283 283 283 283 284 284 285 285 286 287 290 293 293 291 289 288 285 281 278 277 276 275
284 284 283 283 285 285 285 284 283 284 283 281 280 282 282 283 283 283 283 280 281 283 283 284 284 283 282 282 284 285 286 289 292 293 293 292 290 288 283 278 276 275 275
284 285 282 283 285 285 285 285 286 285 284 284 283 281 280 280 281 281 281 281 281 282 283 284 284 282 282 283 285 286 287 288 290 291 293 293 291 289 286 281 276 274 273
282 283 284 283 284 285 286 287 286 285 285 284 281 280 279 279 280 280 279 279 279 280 280 280 281 281 281 282 284 285 287 289 290 292 293 294 292 290 287 283 279 276 275
Height
5833 5831 5830 5829 5827 5826 5825 5824 5823 5823 5823 5823 5823 5824 5824 5825 5825 5826 5826 5827 5828 5828 5829 5829 5830 5831 5831 5832 5833 5833 5834 5835 5836 5837 5838 5838 5839 5840 5840 5840 5840 5841 5842
5828 5827 5825 5824 5823 5821 5820 5819 5818 5817 5817 5818 5818 5819 5820 5820 5821 5821 5822 5823 5823 5824 5824 5825 5825 5826 5827 5828 5828 5829 5830 5831 5832 5833 5833 5834 5834 5835 5835 5836 5836 5836 5837
5823 5822 5821 5819 5818 5816 5815 5813 5812 5812 5812 5812 5813 5814 5815 5815 5816 5817 5817 5818 5819 5819 5820 5820 5821 5821 5822 5823 5823 5824 5825 5826 5827 5828 5829 5829 5829 5830 5830 5831 5831 5831 5831
5819 5817 5816 5815 5813 5811 5810 5808 5807 5807 5807 5807 5808 5809 5809 5810 5811 5811 5812 5813 5814 5814 5815 5815 5816 5816 5817 5817 5818 5819 5820 5821 5821 5822 5823 5823 5824 5824 5824 5825 5825 5825 5825
5813 5812 5811 5810 5808 5807 5805 5803 5802 5802 5802 5802 5802 5803 5804 5805 5805 5806 5807 5807 5808 5809 5810 5810 5811 5811 5812 5812 5813 5814 5814 5815 5815 5816 5817 5817 5817 5818 5818 5818 5819 5819 5819
5808 5807 5806 5805 5803 5802 5800 5798 5797 5796 5796 5796 5796 5797 5798 5799 5799 5800 5801 5802 5803 5804 5804 5805 5805 5806 5806 5807 5807 5808 5808 5809 5809 5810 5810 5811 5811 5811 5811 5812 5812 5813 5813
5803 5802 5801 5799 5798 5797 5795 5793 5792 5791 5791 5791 5791 5791 5792 5793 5793 5794 5795 5796 5797 5798 5799 5799 5800 5800 5800 5801 5801 5801 5802 5802 5803 5803 5803 5804 5804 5804 5804 5805 5805 5805 5806
5797 5796 5795 5794 5793 5792 5790 5788 5787 5786 5786 5785 5786 5786 5786 5787 5788 5788 5789 5790 5791 5792 5792 5793 5793 5794 5794 5794 5794 5794 5795 5795 5795 5796 5796 5797 5797 5797 5797 5798 5798 5798 5799
5791 5791 5789 5788 5787 5786 5785 5783 5782 5781 5781 5781 5781 5781 5781 5781 5782 5782 5783 5783 5784 5785 5786 5786 5787 5787 5787 5787 5787 5787 5787 5787 5787 5788 5789 5789 5789 5789 5789 5790 5790 5791 5791
5786 5785 5784 5783 5782 5781 5780 5778 5777 5777 5776 5776 5775 5775 5776 5776 5776 5776 5776 5777 5777 5778 5779 5779 5780 5780 5780 5780 5780 5780 5780 5780 5780 5781 5781 5781 5781 5782 5782 5782 5783 5783 5783
5780 5779 5778 5778 5777 5775 5774 5773 5772 5771 5771 5770 5770 5770 5770 5770 5770 5769 5770 5770 5770 5771 5772 5772 5772 5773 5773 5773 5773 5773 5773 5773 5773 5773 5773 5773 5773 5773 5774 5774 5774 5774 5775
5774 5773 5772 5772 5771 5769 5769 5767 5767 5766 5765 5764 5764 5764 5763 5763 5763 5763 5763 5763 5763 5764 5764 5764 5765 5765 5765 5765 5765 5765 5765 5765 5765 5765 5765 5765 5765 5765 5766 5766 5766 5766 5766
5768 5767 5766 5765 5764 5763 5762 5761 5760 5759 5759 5758 5757 5757 5757 5757 5756 5756 5757 5757 5757 5757 5757 5757 5757 5757 5757 5757 5757 5757 5757 5757 5756 5756 5756 5756 5757 5757 5757 5757 5757 5757 5757
5761 5761 5760 5759 5758 5757 5756 5755 5754 5753 5752 5752 5751 5750 5750 5750 5750 5750 5750 5750 5750 5749 5749 5749 5749 5749 5749 5749 5749 5749 5748 5748 5748 5748 5748 5748 5748 5748 5748 5748 5748 5748 5749
5755 5755 5754 5753 5752 5751 5749 5748 5747 5746 5745 5745 5745 5744 5744 5743 5743 5743 5743 5743 5743 5743 5742 5742 5741 5741 5741 5741 5741 5740 5740 5740 5739 5739 5739 5739 5739 5739 5739 5739 5739 5739 5739
5750 5749 5748 5747 5746 5745 5743 5742 5741 5741 5740 5739 5739 5738 5737 5737 5736 5736 5736 5736 5736 5736 5735 5735 5734 5734 5733 5733 5733 5732 5732 5732 5731 5731 5731 5731 5731 5730 5730 5730 5729 5729 5729
5744 5743 5742 5741 5740 5739 5738 5736 5735 5735 5734 5733 5733 5732 5731 5731 5730 5730 5730 5730 5729 5729 5728 5728 5727 5727 5726 5726 5725 5725 5724 5724 5723 5723 5723 5722 5722 5722 5721 5721 5720 5720 5720
5737 5736 5735 5734 5734 5733 5732 5730 5729 5728 5728 5727 5726 5725 5725 5724 5724 5724 5723 5723 5723 5722 5722 5721 5720 5720 5719 5718 5717 5716 5716 5715 5715 5715 5714 5714 5714 5713 5713 5712 5711 5711 5711
5730 5729 5728 5728 5727 5726 5725 5724 5724 5723 5722 5721 5720 5719 5719 5718 5718 5717 5717 5716 5716 5715 5715 5714 5714 5713 5712 5711 5710 5709 5709 5708 5708 5707 5707 5706 5705 5705 5704 5703 5703 5702 5702
5724 5723 5722 5721 5720 5719 5719 5718 5717 5717 5716 5715 5714 5713 5713 5712 5712 5711 5711 5710 5709 5709 5708 5707 5707 5706 5705 5704 5703 5702 5701 5701 5700 5700 5699 5698 5697 5697 5696 5695 5695 5695 5694
5717 5716 5715 5714 5713 5713 5712 5711 5710 5710 5709 5708 5708 5707 5706 5706 5705 5705 5704 5703 5703 5702 5701 5701 5700 5699 5698 5698 5697 5696 5694 5694 5693 5693 5692 5691 5690 5689 5688 5687 5687 5686 5686
5710 5709 5708 5707 5706 5705 5704 5703 5703 5703 5702 5702 5701 5700 5699 5699 5698 5698 5697 5697 5696 5695 5695 5694 5693 5692 5692 5691 5691 5690 5688 5687 5686 5686 5685 5683 5682 5681 5680 5679 5678 5678 5678
5703 5702 5702 5700 5699 5699 5698 5697 5696 5695 5695 5694 5694 5693 5692 5692 5691 5691 5690 5690 5689 5688 5688 5687 5686 5686 5685 5685 5684 5683 5682 5681 5680 5678 5677 5676 5674 5673 5672 5671 5670 5670 5670
5696 5695 5694 5693 5692 5691 5691 5690 5689 5688 5687 5686 5686 5686 5685 5684 5684 5684 5683 5683 5683 5682 5681 5680 5679 5679 5678 5677 5677 5676 5675 5674 5673 5671 5670 5668 5667 5665 5664 5663 5662 5661 5661
5689 5688 5687 5686 5686 5684 5683 5683 5682 5681 5680 5679 5679 5678 5678 5677 5677 5676 5676 5676 5676 5675 5674 5673 5672 5672 5671 5670 5669 5669 5668 5667 5666 5664 5662 5661 5659 5657 5656 5655 5654 5653 5653
5682 5681 5680 5679 5679 5678 5677 5675 5674 5673 5673 5672 5671 5671 5671 5670 5670 5669 5669 5668 5668 5667 5667 5666 5665 5665 5664 5663 5663 5662 5661 5660 5659 5657 5655 5653 5651 5649 5648 5647 5646 5645 5644